This is the latest recevied weather packets stored in our database for station/object DL6MAA-11. If no packets are shown the sender has not sent any weather packets the latest 10 day(s).
| Time | Temp. | Humidity | Pressure | Rain* | Wind** | Luminosity | Snow |
|---|---|---|---|---|---|---|---|
| 1777748227 | 18.89° C | 46% | 1014.7 hPa | 0 mm | - | 0 W/m² | - |
| 1777747933 | 18.89° C | 45% | 1014.7 hPa | 0 mm | - | 0 W/m² | - |
| 1777747626 | 19.44° C | 45% | 1014.7 hPa | 0 mm | - | 0 W/m² | - |
| 1777747333 | 20° C | 44% | 1015.3 hPa | 0 mm | - | 0 W/m² | - |
| 1777747018 | 20° C | 43% | 1015.3 hPa | 0 mm | - | 0 W/m² | - |
| 1777746728 | 20° C | 43% | 1015.3 hPa | 0 mm | - | 0 W/m² | - |
| 1777746423 | 20° C | 42% | 1014.3 hPa | 0 mm | - | 0 W/m² | - |
| 1777746129 | 20.56° C | 42% | 1014.3 hPa | 0 mm | - | 11 W/m² | - |
| 1777745837 | 20.56° C | 41% | 1014.3 hPa | 0 mm | - | 14 W/m² | - |
| 1777745540 | 20.56° C | 41% | 1014.8 hPa | 0 mm | - | 19 W/m² | - |
| 1777745226 | 20.56° C | 41% | 1014.8 hPa | 0 mm | - | 23 W/m² | - |
| 1777744932 | 20.56° C | 41% | 1014.8 hPa | 0 mm | - | 23 W/m² | - |
| 1777744628 | 21.11° C | 40% | 1014.7 hPa | 0 mm | - | 30 W/m² | - |
| 1777744329 | 21.11° C | 40% | 1014.7 hPa | 0 mm | - | 33 W/m² | - |
| 1777744038 | 21.11° C | 40% | 1014.7 hPa | 0 mm | - | 35 W/m² | - |
| 1777743741 | 21.11° C | 39% | 1014.8 hPa | 0 mm | - | 35 W/m² | - |
| 1777743426 | 21.67° C | 38% | 1014.8 hPa | 0 mm | - | 39 W/m² | - |
| 1777743131 | 21.67° C | 38% | 1014.8 hPa | 0 mm | - | 42 W/m² | - |
| 1777742834 | 21.67° C | 37% | 1014.7 hPa | 0 mm | - | 44 W/m² | - |
| 1777742529 | 21.67° C | 37% | 1014.7 hPa | 0 mm | - | 47 W/m² | - |
| 1777742235 | 22.22° C | 36% | 1014.7 hPa | 0 mm | - | 51 W/m² | - |
| 1777741937 | 22.22° C | 36% | 1014.5 hPa | 0 mm | - | 54 W/m² | - |
| 1777741636 | 22.22° C | 36% | 1014.5 hPa | 0 mm | - | 60 W/m² | - |
| 1777741332 | 22.78° C | 35% | 1014.5 hPa | 0 mm | - | 65 W/m² | - |
| 1777741037 | 22.78° C | 35% | 1014.7 hPa | 0 mm | - | 70 W/m² | - |
* Rain since midnight (hover to see other rain measurements)
** Current wind speed in m/s (hover to see current wind gust speed)